Location: Newark
(35.8833°N, 14.5000°E)
Time: 00:02:23
(UTC+00:00)

OTV 5 (USA 277) - Visible Passes

Search period start: 25 March 2019 00:00
Search period end: 04 April 2019 00:00
Orbit: 315 x 320 km, 54.5° (Epoch: 14 March)

Date Brightness Start Highest point End Pass type
(mag) Time Alt. Az. Time Alt. Az. Time Alt. Az.
28 Mar ? 04:26:36 10° SSE 04:28:24 16° SE 04:30:12 10° E visible
31 Mar ? 03:36:36 17° S 03:38:06 29° SE 03:40:31 10° ENE visible
01 Apr ? 03:51:17 24° SW 03:52:43 70° NW 03:55:25 10° NE visible
02 Apr ? 02:34:55 11° E 02:34:55 11° E 02:35:08 10° E visible
02 Apr ? 04:05:50 13° W 04:07:30 22° NW 04:09:43 10° NNE visible
03 Apr ? 02:49:21 22° ENE 02:49:21 22° ENE 02:50:30 10° NE visible
